Location: Berville
(49.1893°N, 2.0748°E)
Time: 19:12:48
(UTC+00:00)

FENGYUN 1C DEB - Pass Details

Date: 27 February 2024
Orbit: 768 x 960 km, 99.0° (Epoch: 13 April)

Event Time Altitude Azimuth Distance (km) Brightness Sun altitude
Exits shadow 18:50:14 15° 66° (ENE) 2,339 ? -13.8°
Maximum altitude 18:51:37 16° 51° (NE) 2,266 ? -14.0°
Drops below altitude 10° 18:55:08 10° 15° (NNE) 2,683 ? -14.6°
Sets 18:58:29 0° 355° (N) 3,608 ? -15.1°
